Location: Burbank
(38.7788°N, 114.0429°W)
Time: 13:28:16
(UTC+00:00)

Vanguard 2 Rocket - Pass Details

Date: 21 May 2026
Orbit: 553 x 3286 km, 32.9° (Epoch: 6 June)

Event Time Altitude Azimuth Distance (km) Brightness Sun altitude
Rises 21:58:11 0° 279° (W) 6,013 11.6 53.8°
Reaches altitude 10° 22:01:52 10° 274° (W) 5,304 11.5 53.1°
Maximum altitude 22:17:46 48° 207° (SSW) 3,826 11.3 50.1°
Drops below altitude 10° 22:36:13 10° 141° (SE) 6,041 11.0 46.6°
Sets 22:40:49 0° 136° (SE) 6,867 11.1 45.7°
